Location: Gro�sch�nbrunn
(49.5760°N, 11.8868°E)
Time: 13:52:41
(UTC+00:00)

CSL-04 Rocket - Pass Details

Date: 18 September 2020
Orbit: 806 x 860 km, 98.9° (Epoch: 25 October)

Event Time Altitude Azimuth Distance (km) Brightness Sun altitude
Rises 18:26:11 0° 176° (S) 3,356 6.6 -11.6°
Reaches altitude 10° 18:28:33 10° 181° (S) 2,435 5.9 -12.0°
Maximum altitude 18:33:51 56° 259° (W) 996 4.4 -12.8°
Drops below altitude 10° 18:39:17 10° 338° (NNW) 2,486 6.7 -13.7°
Sets 18:41:44 0° 342° (NNW) 3,433 7.4 -14.0°
